Date String (YYYY-MM-DD hh:mm:ss) UTC,Instrument flags,Ambient pressure (hPa),Sample flow (lpm),Bypass flow (lpm),Sample temperature (°C),Ambient temperature (°C),ASC tube jacket temperature (°C),LED temperature (°C),Box temperature (°C),Sample RH (%),Span deviation,Mass concentration (μg/m³),Mass concentration (μg/m³),Mass concentration (μg/m³)
DateTimeUTC,F1_M11,P_M11,Q1_M11,Q2_M11,T1_M11,T2_M11,T3_M11,T4_M11,T5_M11,U1_M11,ZSPAN_M11,X0_M11,X2_M11,X1_M11
2021-12-30 17:00:00,,0809.1,5.00,0.00,22.8,22.3,00.0,31.7,24.4,07.4,0000.0,0008.16,0000.84,0000.16
2021-12-30 17:01:00,,0809.1,4.99,0.00,22.8,22.3,00.0,31.7,24.4,07.3,0000.0,0007.72,0000.85,0000.16
2021-12-30 17:02:00,,0809.2,5.00,0.00,22.7,22.2,00.0,31.7,24.4,07.2,0000.0,0007.08,0000.82,0000.16
2021-12-30 17:03:00,,0809.1,4.99,0.00,22.7,22.1,00.0,31.7,24.3,07.2,0000.0,0006.92,0000.81,0000.16
2021-12-30 17:04:00,,0809.1,5.01,0.00,22.7,22.0,00.0,31.7,24.3,07.3,0000.0,0007.21,0000.82,0000.16
2021-12-30 17:05:00,,0808.7,4.99,0.00,22.6,22.0,00.0,31.7,24.3,07.4,0000.0,0008.02,0000.81,0000.16
2021-12-30 17:06:00,,0808.5,5.00,0.00,22.6,21.9,00.0,31.7,24.2,07.5,0000.0,0008.63,0000.80,0000.16
2021-12-30 17:07:00,,0808.6,5.00,0.00,22.6,21.9,00.0,31.7,24.2,07.4,0000.0,0008.91,0000.82,0000.16
2021-12-30 17:08:00,,0808.7,5.00,0.00,22.6,21.9,00.0,31.6,24.2,07.4,0000.0,0009.04,0000.84,0000.16
2021-12-30 17:09:00,,0808.7,5.00,0.00,22.5,21.8,00.0,31.6,24.2,07.4,0000.0,0009.14,0000.89,0000.16
2021-12-30 17:10:00,,0808.4,5.01,0.00,22.5,21.8,00.0,31.6,24.2,07.4,0000.0,0009.06,0000.89,0000.15
2021-12-30 17:11:00,,0808.5,4.99,0.00,22.5,21.9,00.0,31.6,24.2,07.5,0000.0,0008.17,0000.89,0000.15
2021-12-30 17:12:00,,0808.8,4.99,0.00,22.5,21.8,00.0,31.6,24.2,07.5,0000.0,0008.49,0000.92,0000.16
2021-12-30 17:13:00,,0808.6,5.01,0.00,22.5,21.8,00.0,31.6,24.1,07.5,0000.0,0008.58,0001.02,0000.17
2021-12-30 17:14:00,,0808.5,5.00,0.00,22.4,21.7,00.0,31.5,24.0,07.6,0000.0,0009.77,0001.02,0000.17
2021-12-30 17:15:00,,0808.4,4.99,0.00,22.4,21.7,00.0,31.5,24.0,07.5,0000.0,0009.40,0001.00,0000.17
2021-12-30 17:16:00,,0808.7,5.01,0.00,22.4,21.7,00.0,31.5,24.0,07.5,0000.0,0008.59,0000.96,0000.17
2021-12-30 17:17:00,,0809.1,4.99,0.00,22.4,21.7,00.0,31.5,24.0,07.6,0000.0,0007.52,0000.90,0000.17
2021-12-30 17:18:00,,0809.1,5.01,0.00,22.4,21.7,00.0,31.5,24.1,07.5,0000.0,0007.22,0000.90,0000.18
2021-12-30 17:19:00,,0809.1,5.00,0.00,22.4,21.7,00.0,31.5,24.1,07.5,0000.0,0007.62,0000.97,0000.17
2021-12-30 17:20:00,,0809.2,4.99,0.00,22.4,21.8,00.0,31.5,24.1,07.5,0000.0,0007.93,0000.96,0000.17
2021-12-30 17:21:00,,0809.1,5.00,0.00,22.4,21.8,00.0,31.5,24.1,07.5,0000.0,0009.50,0001.02,0000.17
2021-12-30 17:22:00,,0809.4,5.01,0.00,22.4,21.8,00.0,31.5,24.1,07.5,0000.0,0010.64,0001.03,0000.17
2021-12-30 17:23:00,,0809.7,5.00,0.00,22.4,21.8,00.0,31.5,24.1,07.4,0000.0,0011.48,0001.06,0000.18
2021-12-30 17:24:00,,0809.5,4.99,0.00,22.4,21.8,00.0,31.5,24.1,07.4,0000.0,0011.33,0001.05,0000.18
2021-12-30 17:25:00,,0809.6,5.00,0.00,22.5,22.3,00.0,31.5,24.3,07.4,0000.0,0010.27,0001.11,0000.18
2021-12-30 17:26:00,,0809.5,5.00,0.00,22.6,23.3,00.0,31.5,24.6,07.3,0000.0,0010.58,0001.24,0000.19
2021-12-30 17:27:00,,0809.5,5.00,0.00,22.8,23.6,00.0,31.6,24.8,07.2,0000.0,0011.78,0001.35,0000.20
2021-12-30 17:28:00,,0809.7,4.99,0.00,22.8,23.4,00.0,31.6,24.8,07.2,0000.0,0012.39,0001.38,0000.20
2021-12-30 17:29:00,,0809.7,5.02,0.00,22.8,23.2,00.0,31.6,24.7,07.1,0000.0,0013.00,0001.42,0000.20
2021-12-30 17:30:00,,0809.7,4.98,0.00,22.9,23.0,00.0,31.7,24.7,07.1,0000.0,0013.05,0001.37,0000.20
2021-12-30 17:31:00,,0809.4,5.01,0.00,22.9,22.9,00.0,31.7,24.7,07.0,0000.0,0013.22,0001.38,0000.20
2021-12-30 17:32:00,,0809.0,5.00,0.00,22.9,22.8,00.0,31.7,24.7,07.0,0000.0,0012.00,0001.34,0000.20
2021-12-30 17:33:00,,0809.2,4.99,0.00,22.9,22.7,00.0,31.7,24.7,06.9,0000.0,0011.11,0001.33,0000.20
2021-12-30 17:34:00,,0809.4,5.01,0.00,22.9,22.6,00.0,31.7,24.6,06.9,0000.0,0009.82,0001.30,0000.20
2021-12-30 17:35:00,,0809.2,5.01,0.00,22.9,22.5,00.0,31.7,24.6,06.9,0000.0,0009.65,0001.27,0000.20
2021-12-30 17:36:00,,0809.2,4.99,0.00,22.9,22.4,00.0,31.7,24.6,07.0,0000.0,0010.02,0001.22,0000.19
2021-12-30 17:37:00,,0809.2,5.01,0.00,22.9,22.4,00.0,31.8,24.6,07.0,0000.0,0010.22,0001.12,0000.19
2021-12-30 17:38:00,,0809.0,4.99,0.00,22.9,22.4,00.0,31.8,24.6,07.0,0000.0,0009.16,0001.04,0000.18
2021-12-30 17:39:00,,0809.1,5.00,0.00,22.9,22.3,00.0,31.8,24.6,07.1,0000.0,0008.33,0001.01,0000.18
2021-12-30 17:40:00,,0809.0,5.00,0.00,22.8,22.3,00.0,31.8,24.6,07.0,0000.0,0007.86,0001.02,0000.19
2021-12-30 17:41:00,,0808.8,5.00,0.00,22.8,22.3,00.0,31.8,24.6,06.9,0000.0,0007.77,0001.05,0000.22
2021-12-30 17:42:00,,0808.7,4.99,0.00,22.9,22.3,00.0,31.8,24.6,07.0,0000.0,0007.19,0001.04,0000.26
2021-12-30 17:43:00,,0808.6,5.01,0.00,22.9,22.3,00.0,31.8,24.6,06.9,0000.0,0007.04,0001.05,0000.31
2021-12-30 17:44:00,,0808.5,4.99,0.00,22.9,22.4,00.0,31.8,24.7,06.9,0000.0,0007.68,0001.19,0000.41
2021-12-30 17:45:00,,0808.5,5.00,0.00,22.9,22.4,00.0,31.8,24.6,06.9,0000.0,0008.25,0001.49,0000.69
2021-12-30 17:46:00,,0808.8,5.01,0.00,22.9,22.4,00.0,31.8,24.7,06.7,0000.0,0008.70,0001.73,0000.92
2021-12-30 17:47:00,,0808.9,5.00,0.00,22.9,22.4,00.0,31.8,24.6,06.6,0000.0,0008.24,0001.78,0000.94
2021-12-30 17:48:00,,0808.8,4.99,0.00,22.9,22.3,00.0,31.8,24.6,06.7,0000.0,0007.83,0001.80,0000.96
2021-12-30 17:49:00,,0808.3,5.00,0.00,22.9,22.3,00.0,31.8,24.6,06.7,0000.0,0008.09,0001.84,0001.01
2021-12-30 17:50:00,,0808.3,5.01,0.00,22.9,22.3,00.0,31.8,24.6,06.6,0000.0,0008.40,0001.85,0001.02
2021-12-30 17:51:00,,0808.7,4.98,0.00,22.9,22.3,00.0,31.8,24.6,06.6,0000.0,0009.20,0001.81,0001.02
2021-12-30 17:52:00,,0808.1,5.00,0.00,22.9,22.3,00.0,31.8,24.6,06.7,0000.0,0008.87,0001.78,0001.03
2021-12-30 17:53:00,,0808.4,5.01,0.00,22.9,22.3,00.0,31.8,24.7,06.6,0000.0,0009.18,0001.78,0001.02
2021-12-30 17:54:00,,0808.5,5.00,0.00,22.9,22.4,00.0,31.8,24.7,06.6,0000.0,0009.69,0001.79,0000.99
2021-12-30 17:55:00,,0808.7,5.00,0.00,22.9,22.4,00.0,31.8,24.7,06.7,0000.0,0009.02,0001.72,0000.97
2021-12-30 17:56:00,,0808.6,5.00,0.00,23.0,22.4,00.0,31.8,24.7,06.6,0000.0,0008.49,0001.49,0000.80
2021-12-30 17:57:00,,0808.5,5.00,0.00,23.0,22.4,00.0,31.9,24.8,06.4,0000.0,0008.21,0001.28,0000.66
2021-12-30 17:58:00,,0808.6,5.01,0.00,23.0,22.4,00.0,31.9,24.8,06.3,0000.0,0008.61,0001.30,0000.71
2021-12-30 17:59:00,,0809.0,5.01,0.00,23.0,22.5,00.0,31.9,24.8,06.3,0000.0,0008.63,0001.35,0000.75
